Content
SEND FEEDBACK

Canada Flag

CHARLOTTETOWN, PRINCE EDWARD ISLAND


Home > North America > Canada > Prince Edward Island
Elevation: 55 meters     Latitude: 46 17N     Longitude: 063 08W

WEATHER
 
SELECT A DAY
Number of Records: 214,947;   Date Range: 1/1/95 - 3/22/16
 
SHARE

PRINT THIS DATA

[ ← Previous Day ]
WEATHER ALMANAC - 4 FEBRUARY, 2013
[ Next Day → ]
[ °F ]   °C
Weather ElementAverageHighLow
Temperature-4.9 °C-2 °C (1:00 am)-9 °C (10:00 pm)
Dewpoint-6.8 °C-2 °C (1:00 am)-15 °C (11:00 pm)
Humidity87 %100 % (1:00 am)55 % (8:00 pm)
Barometer989.5 hPa999 hPa (1:00 am)983.4 hPa (11:00 am)
Wind Speed29.5 km/h44.4 km/h (9:00 pm)
Wind Gust72.3 km/h (9:00 pm)
Weather ElementAverage
Visibility4.3 km
Wind DirectionWNW (297.1 °)

Weather ElementTotal
Precipitation---
Heating Degree Days23.8 (Base 18.3)
Averaged from 38 records on 4 February, 2013
WEATHER CONDITIONS BREAKOUT
WIND DIRECTION BREAKOUT
WEATHER BY HOUR - 4 FEBRUARY, 2013
[ °F ]   °C
Local TimeTemperatureDewpointHumidityBarometerVisibilityWind DirectionWind SpeedGust SpeedPrecipitationEventsConditions
1:00 AM-2 °C-2 °C100 %999 hPa4.8 kmNNW (330°)7.4 km/hOvercast
1:06 AM-2 °C-2 °C100 %998.6 hPa3.2 kmNNW (330°)7.4 km/hLight Freezing Drizzle
1:25 AM-2 °C-2 °C100 %998.3 hPa1.3 kmNNW (340°)7.4 km/hLight Freezing Drizzle
2:00 AM-2.2 °C-2.2 °C100 %997 hPa1.6 kmNNW (340°)9.3 km/hRainLight Freezing Drizzle
2:00 AM-2 °C-2 °C100 %997 hPa1 kmNorth (350°)9.3 km/hLight Freezing Drizzle
3:00 AM-2 °C-2 °C100 %995.6 hPa1.3 kmNNW (340°)9.3 km/hLight Freezing Drizzle
4:00 AM-2 °C-2 °C100 %993.6 hPa1.3 kmNorth (350°)11.1 km/hSnowLight Snow
5:00 AM-2 °C-2 °C100 %991.9 hPa1.3 kmNorth (350°)13 km/hSnowLight Snow
7:00 AM-2 °C-2 °C100 %988.1 hPa1.6 kmNorth (350°)24.1 km/h35.2 km/hSnowLight Snow
8:00 AM-2 °C-3 °C93 %986.8 hPa1.6 kmNNW (330°)24.1 km/h42.6 km/hSnowLight Snow
8:00 AM-2.2 °C-2.8 °C95 %986.8 hPa1.6 kmNNW (330°)24.1 km/hSnowLight Snow
8:41 AM-2 °C-3 °C93 %985.4 hPa1.3 kmNNW (330°)25.9 km/h40.7 km/hSnowLight Snow
9:00 AM-2 °C-3 °C93 %984.8 hPa1.3 kmNW (320°)31.5 km/h48.1 km/hSnowLight Snow
10:00 AM-3 °C-4 °C93 %983.7 hPa1.6 kmNW (320°)38.9 km/h55.5 km/hSnowLight Snow
10:18 AM-3 °C-4 °C93 %983.7 hPa1 kmNW (310°)40.7 km/h57.5 km/hSnowLight Snow
11:00 AM-4 °C-6 °C86 %983.4 hPa1.3 kmNW (310°)35.2 km/h64.9 km/hSnowLight Snow
11:32 AM-5 °C-6 °C93 %983.4 hPa1.6 kmNW (310°)38.9 km/h64.9 km/hSnowLight Snow
12:00 PM-6 °C-7 °C93 %983.4 hPa1.6 kmWNW (300°)42.6 km/h62.9 km/hSnowLight Snow
12:29 PM-6 °C-8 °C86 %983.4 hPa4 kmWNW (290°)40.7 km/h59.2 km/hSnowLight Snow
1:00 PM-6 °C-9 °C80 %983.4 hPa3.2 kmWNW (290°)40.7 km/h59.2 km/hSnowLight Snow
2:00 PM-6.7 °C-8.9 °C79 %984.4 hPa3.2 kmWest (280°)31.5 km/hSnowLight Snow
2:00 PM-6 °C-9 °C80 %984.4 hPa3.2 kmWest (280°)31.5 km/h55.5 km/hSnowLight Snow
2:34 PM-7 °C-8 °C93 %985.1 hPa1.6 kmWest (270°)31.5 km/h46.3 km/hSnowLight Snow
2:47 PM-7 °C-8 °C93 %985.4 hPa1 kmWest (260°)29.6 km/h42.6 km/hSnowLight Snow
3:00 PM-7 °C-8 °C93 %985.8 hPa1 kmWest (270°)33.3 km/h48.1 km/hSnowLight Snow
4:00 PM-6 °C-8 °C86 %987.1 hPa4 kmWest (270°)27.8 km/h57.5 km/hSnowLight Snow
4:09 PM-6 °C-8 °C86 %987.1 hPa1.3 kmWest (260°)38.9 km/h53.8 km/hSnowLight Snow
4:37 PM-6 °C-7 °C93 %987.5 hPa0.8 kmWest (260°)31.5 km/h50.1 km/hSnowSnow
5:00 PM-7 °C-9 °C86 %988.5 hPa2.4 kmWest (280°)37 km/h61.2 km/hSnowLight Snow
5:15 PM-7 °C-10 °C80 %988.5 hPa4 kmWest (280°)42.6 km/h66.6 km/hSnowLight Snow
6:00 PM-7 °C-9 °C86 %989.8 hPa8 kmWest (260°)27.8 km/h48.1 km/hSnowLight Snow
7:00 PM-7 °C-11 °C74 %991.5 hPa8 kmWest (260°)35.2 km/h57.5 km/hSnowLight Snow
8:00 PM-7.2 °C-12.2 °C55 %993.2 hPa8 kmWest (260°)40.7 km/hSnowLight Snow
8:00 PM-7 °C-12 °C68 %993.2 hPa8 kmWest (260°)38.9 km/h68.6 km/hSnowLight Snow
9:00 PM-8 °C-14 °C63 %994.6 hPa8 kmWest (260°)44.4 km/h72.3 km/hSnowLight Snow
9:43 PM-8 °C-14 °C63 %995.3 hPa19.3 kmWSW (250°)42.6 km/h61.2 km/hSnowLow Drifting Snow
10:00 PM-9 °C-14 °C68 %995.3 hPa24.1 kmWest (260°)33.3 km/h59.2 km/hSnowLow Drifting Snow
11:00 PM-9 °C-15 °C62 %996.3 hPa24.1 kmWSW (250°)35.2 km/h51.8 km/hSnowLow Drifting Snow
Hourly data recorded from CYYG, located 0 kilometers away from Charlottetown, Prince Edward Island




STORIES FROM OUR PARTNERS